GFSMW_sfc_dewp_072.txt.gz
Dewpoint
50 50 51 55 54 55 54 53 53 55 58 58 57 55 55 55 56 57 60 62 62 62 61 60 58 56 54 52 53 50 47 45 45 45 44 45 44 43 42 42 39 38 38
47 49 49 51 52 53 52 53 54 58 59 59 57 55 53 54 53 57 61 62 62 62 61 60 56 55 54 55 51 49 47 48 48 45 44 41 42 43 43 42 42 41 37
47 49 50 49 51 52 52 52 55 58 58 58 55 54 53 54 53 60 61 62 62 61 60 60 57 56 56 54 52 51 49 47 47 45 43 40 39 38 41 43 42 39 39
48 49 50 51 51 51 53 54 54 56 57 57 54 53 51 50 53 59 60 61 61 60 59 59 58 57 56 54 52 51 49 49 46 45 43 42 40 37 37 39 38 39 38
47 49 49 51 52 53 55 56 55 54 54 56 57 55 54 53 54 55 60 60 60 60 58 58 57 57 56 55 52 50 50 50 44 44 43 40 40 41 38 35 35 37 38
47 46 48 50 52 55 56 57 56 55 56 58 57 59 56 56 55 60 59 59 59 59 59 57 57 56 55 53 53 51 51 45 44 43 40 40 40 40 38 35 34 33 34
46 47 47 47 48 52 55 57 56 55 56 59 58 59 59 57 57 59 58 59 58 57 57 56 56 56 55 53 53 52 49 44 42 41 41 42 41 42 37 35 34 32 33
44 44 44 49 49 51 55 56 55 55 56 58 59 60 59 59 58 59 59 58 58 56 56 56 55 54 54 53 53 49 47 45 45 43 43 44 44 41 37 35 33 32 31
40 42 45 46 49 51 54 56 55 55 55 57 59 60 60 60 60 61 61 60 58 57 56 55 54 53 53 50 48 47 45 45 44 44 43 43 42 41 39 36 35 34 30
41 41 42 48 47 49 53 57 56 55 55 56 58 59 60 61 61 62 60 59 58 56 56 53 53 49 48 47 46 45 44 44 44 44 43 43 41 40 39 36 36 35 32
40 41 43 45 49 50 52 55 57 56 56 56 58 60 61 61 60 59 59 58 57 55 53 49 47 46 45 44 44 43 43 42 42 43 42 41 41 39 37 37 36 33 33
36 41 43 44 45 51 53 54 56 56 56 56 59 60 60 59 59 58 56 54 53 50 48 46 45 44 44 44 43 42 42 41 41 41 41 40 38 38 38 37 35 34 33
33 38 43 44 45 47 51 53 57 57 57 57 59 58 57 53 51 49 49 49 48 46 46 45 45 44 43 43 42 42 42 43 42 41 40 40 38 36 36 36 34 33 31
30 34 41 44 47 49 51 53 57 57 57 57 55 53 51 50 49 48 49 48 47 46 45 45 44 43 42 42 42 42 43 42 41 41 40 38 37 36 35 34 33 32 32
28 31 35 46 49 53 57 56 55 54 53 52 50 49 49 47 47 48 47 47 46 45 44 43 43 43 43 43 43 41 41 40 40 39 38 38 38 38 36 33 32 32 31
37 35 37 47 52 56 53 52 51 51 50 49 48 48 47 47 46 46 45 45 44 43 42 42 43 43 41 39 38 36 38 37 36 35 34 34 35 33 34 34 34 32 30
40 42 42 53 55 53 52 50 49 49 48 47 47 47 46 46 46 44 44 43 43 42 42 41 42 41 40 38 38 35 33 32 32 32 32 30 27 32 32 33 33 33 34
43 45 51 53 53 52 50 49 48 47 47 47 46 46 44 43 42 41 40 40 40 40 41 42 42 41 34 35 34 33 31 31 32 32 31 30 29 29 29 27 26 27 29
46 48 50 51 51 50 49 48 47 46 46 45 44 42 42 40 40 40 40 40 42 42 42 39 34 33 31 31 30 31 31 29 28 27 28 27 25 29 30 26 26 26 26
45 47 48 49 49 49 48 47 45 44 44 43 42 41 41 40 40 41 41 42 42 39 32 31 34 32 29 31 30 28 28 27 26 25 23 26 26 28 28 25 24 22 22
43 45 46 45 45 45 45 43 42 41 41 41 40 40 40 40 41 41 37 34 33 35 34 32 30 28 30 29 27 26 25 24 23 22 22 23 26 26 26 26 24 24 25
42 43 43 42 42 43 43 41 40 40 40 39 39 39 37 32 32 33 32 31 33 30 28 28 28 30 29 27 25 23 22 21 22 21 21 22 23 24 26 26 28 29 28
40 41 41 42 42 42 41 39 39 39 37 36 33 31 29 29 29 30 27 25 25 26 29 27 29 29 28 25 24 21 21 21 22 21 21 21 22 24 25 27 27 28 30
38 39 40 40 40 40 38 36 35 35 34 32 30 28 25 22 20 18 19 25 27 29 27 27 27 27 25 24 21 20 20 20 20 20 20 20 22 23 22 22 24 25 27
37 38 39 39 37 35 34 33 33 33 30 28 24 22 22 23 22 22 22 27 25 25 25 25 25 23 22 20 19 18 19 19 19 18 19 20 21 19 19 19 20 21 23
36 37 36 34 32 31 30 29 29 27 25 21 23 28 28 25 20 22 22 25 23 22 21 20 23 23 19 17 17 17 18 18 19 18 18 16 16 17 17 17 17 18 19

GFSMW_sfc_dewp_078.txt.gz
Dewpoint
52 53 53 53 53 54 53 52 52 52 53 53 50 48 47 52 52 52 54 57 57 59 58 57 54 54 52 51 50 49 47 45 43 42 41 42 41 40 39 37 36 37 39
52 53 53 52 52 53 53 51 50 51 51 51 49 48 51 54 53 53 54 57 58 59 58 56 55 55 53 51 51 49 46 45 45 42 42 40 42 42 41 41 39 37 38
51 52 52 52 52 51 53 52 50 50 51 51 50 54 54 54 53 53 54 57 59 60 59 58 57 56 54 52 50 49 46 44 45 44 43 40 39 40 41 42 42 41 40
52 52 52 52 52 53 53 53 51 50 51 52 51 51 51 49 51 51 53 58 59 59 60 59 58 56 55 53 51 49 47 46 45 45 44 42 40 37 36 38 39 42 40
51 52 52 52 52 53 53 52 51 51 50 52 51 52 53 53 53 53 54 58 59 59 60 60 59 57 55 54 54 52 50 50 49 46 45 43 40 39 38 36 37 37 38
51 51 52 51 51 52 52 51 50 50 51 51 53 55 55 54 52 52 54 56 58 59 60 60 59 58 56 55 54 52 51 51 49 47 45 45 45 43 42 40 39 38 37
49 51 51 51 50 50 50 50 50 50 51 53 55 56 57 55 52 52 53 55 57 58 59 60 59 58 56 55 55 53 53 51 49 47 46 47 46 46 45 42 40 36 34
48 48 50 50 47 47 48 49 49 49 51 52 57 58 57 56 54 52 55 56 57 58 59 59 59 56 55 54 54 51 48 48 48 47 47 46 46 46 45 43 40 38 34
47 48 48 49 50 45 47 49 49 50 51 52 56 57 58 55 54 53 54 58 58 58 58 58 56 55 53 52 50 49 48 48 47 45 46 46 46 46 46 45 44 40 34
46 47 49 49 50 50 49 51 50 50 51 53 55 56 57 57 55 56 56 57 58 57 57 56 55 54 52 50 49 48 47 46 46 45 45 45 45 45 45 45 44 41 38
45 46 47 49 50 50 51 52 52 52 54 55 56 56 56 57 57 56 57 56 56 57 56 55 54 52 51 49 47 47 46 45 44 44 44 44 44 44 44 43 41 37 34
41 45 47 47 49 51 52 52 53 54 55 56 56 57 58 57 57 58 57 57 56 56 56 53 53 51 49 47 45 44 44 44 44 44 43 42 42 42 42 40 38 35 34
36 37 41 45 47 49 50 52 54 55 56 56 56 56 56 58 58 58 57 58 57 53 52 51 49 47 46 45 45 44 44 44 43 42 42 42 42 41 40 38 36 36 35
36 38 39 44 48 50 50 52 54 56 56 55 55 54 54 54 54 54 54 53 53 50 49 48 46 45 44 44 44 44 43 42 42 43 43 42 41 39 38 36 35 34 33
31 35 40 47 54 53 53 54 53 53 53 52 52 50 50 50 50 50 49 49 48 47 47 46 45 44 44 43 43 43 42 42 42 42 41 38 36 35 33 30 28 27 27
35 36 39 53 54 53 51 52 51 51 51 50 48 48 48 48 47 47 47 46 46 45 44 44 43 42 42 40 40 42 41 38 34 31 30 31 31 31 31 30 29 28 25
37 44 48 52 53 51 51 50 50 50 49 49 49 49 48 46 46 46 46 45 44 44 43 43 43 42 42 40 39 36 34 30 30 28 27 25 23 28 26 27 25 25 25
44 52 53 51 50 50 50 49 49 49 48 48 48 47 47 45 45 44 44 43 43 43 42 42 42 40 37 37 35 33 30 28 28 26 24 22 22 27 26 25 23 22 22
50 52 51 49 48 48 48 48 48 48 48 47 46 45 45 44 44 43 43 42 42 41 41 40 34 31 31 33 32 29 27 25 23 23 23 23 23 25 24 23 22 22 23
52 51 50 49 48 48 48 47 47 47 45 45 44 44 44 43 42 42 41 40 40 40 37 33 31 30 29 32 31 27 25 22 21 22 21 23 23 23 23 24 24 23 23
51 51 50 48 47 47 47 46 45 44 44 44 43 42 42 42 41 40 40 39 34 32 32 29 29 28 28 29 27 25 22 23 23 21 21 21 22 21 24 25 25 23 21
50 49 49 47 47 46 45 44 43 42 42 42 41 41 40 39 40 38 36 33 30 29 28 28 27 26 26 26 25 24 23 21 22 20 21 22 20 22 24 24 20 19 22
44 45 46 44 44 44 43 41 41 41 41 41 40 38 35 34 32 32 31 30 29 27 27 27 25 24 24 24 23 21 20 20 21 22 20 19 21 22 24 20 18 21 20
42 43 42 41 41 42 41 40 40 40 34 29 26 26 25 26 27 26 27 27 27 28 28 28 26 24 22 21 20 20 21 18 19 20 20 20 22 22 22 21 20 20 18
42 39 36 34 33 37 37 36 34 29 24 24 24 24 25 26 26 26 24 22 26 28 26 26 26 24 22 21 20 19 20 21 21 19 18 20 19 18 17 18 18 17 15
33 26 24 24 24 25 25 26 25 24 22 22 24 26 26 26 24 23 24 27 26 24 26 25 25 24 22 19 17 18 18 18 19 19 16 12 8 11 15 15 14 14 12

GFSMW_sfc_dewp_084.txt.gz
Dewpoint
50 54 54 55 55 55 56 55 54 55 55 55 55 55 54 54 56 56 56 56 56 55 54 54 54 53 51 51 50 48 46 45 42 40 40 41 40 40 39 42 44 46 47
50 51 53 54 54 54 55 54 53 54 55 55 56 56 53 52 53 55 57 57 57 56 56 55 54 54 52 51 50 49 47 46 43 40 40 38 39 42 41 40 40 43 44
49 50 51 53 54 53 53 53 52 52 53 55 52 51 51 52 53 53 54 56 57 58 57 56 55 54 53 52 51 49 47 46 45 44 42 39 38 40 42 42 41 38 39
50 50 51 50 52 52 52 52 52 51 52 52 51 49 50 49 49 50 51 53 55 56 57 56 56 54 54 52 52 51 49 48 46 45 44 44 44 42 39 40 42 42 40
50 50 50 51 51 51 52 52 52 51 51 51 51 49 49 50 46 48 49 51 54 55 56 56 55 55 54 54 52 51 49 49 48 47 45 44 42 42 42 42 40 40 43
49 51 51 51 51 51 51 52 51 51 51 51 50 49 49 48 48 48 50 51 52 54 55 57 57 56 55 54 53 52 51 51 50 49 47 46 44 45 44 43 44 44 44
49 50 51 51 51 51 50 51 51 51 51 51 51 50 50 49 48 48 49 49 51 52 54 56 56 57 57 56 56 54 53 51 50 49 49 49 48 49 47 46 45 43 42
49 50 51 51 51 51 51 51 51 51 51 50 51 51 50 50 50 50 50 51 51 52 54 56 58 58 58 58 56 55 54 54 52 51 49 49 49 48 46 46 46 40 40
49 50 51 51 51 51 51 52 51 51 50 50 50 50 51 50 50 51 52 53 53 54 54 55 56 56 56 56 56 56 54 53 53 51 50 49 49 49 49 47 45 45 40
48 50 51 51 51 51 51 52 51 50 49 49 49 49 50 51 52 53 54 54 54 53 55 56 56 56 55 55 55 54 53 51 51 51 50 49 48 48 47 46 45 44 43
47 49 50 51 51 51 51 51 51 50 49 49 50 49 49 51 52 52 54 55 55 55 56 56 56 56 55 54 54 53 52 51 50 48 49 48 47 46 46 46 45 44 43
46 48 49 50 51 51 50 50 50 50 50 50 50 50 51 51 52 54 55 56 55 55 56 56 56 56 56 54 52 51 50 50 47 47 47 46 46 46 45 45 44 43 42
45 46 47 49 49 51 51 49 49 50 50 50 50 51 51 52 53 54 56 57 56 56 56 57 56 57 54 51 51 50 48 48 49 48 47 45 45 44 43 42 41 40 39
40 45 45 47 49 49 50 51 49 49 50 50 50 50 52 53 54 55 55 55 55 55 56 57 57 55 52 51 49 48 47 47 46 46 45 44 44 43 42 40 39 37 35
34 40 44 46 47 48 50 50 51 51 50 50 50 51 52 53 53 53 53 54 55 56 56 54 52 51 50 49 48 47 46 46 45 44 42 39 39 38 38 36 31 28 28
28 34 38 43 45 47 48 50 50 51 52 52 51 51 52 52 52 51 51 50 50 49 49 48 47 46 47 43 42 44 45 44 42 36 34 33 32 31 31 30 28 26 24
30 30 36 38 42 49 49 50 51 52 51 51 51 50 50 49 49 49 49 47 47 46 45 45 45 44 43 40 41 40 42 37 35 32 28 25 27 29 26 25 24 22 22
30 32 36 48 49 49 50 51 51 51 50 49 49 49 49 48 47 47 46 44 45 44 44 44 44 43 40 37 36 34 31 30 29 28 26 27 25 25 23 20 19 22 22
32 36 46 49 50 49 50 50 50 50 49 48 48 48 47 46 45 44 43 44 44 43 42 41 41 38 36 35 33 31 28 26 25 24 24 23 23 24 23 21 22 22 22
46 48 49 50 49 49 50 49 48 48 47 46 46 46 46 45 44 43 43 43 41 38 36 34 35 34 33 33 32 28 25 23 22 20 21 23 22 22 23 25 24 21 19
48 48 49 48 48 49 48 47 47 45 45 45 44 44 44 43 43 42 41 38 35 33 31 30 29 29 29 29 29 27 25 24 22 19 19 20 20 21 23 25 22 20 19
47 47 47 47 48 47 47 45 43 43 43 42 42 41 41 40 38 37 37 35 33 30 29 27 27 27 27 27 26 24 23 23 24 20 20 21 20 21 23 22 18 19 18
47 47 46 46 45 45 44 42 42 41 37 36 35 34 34 34 35 34 33 33 31 29 28 27 26 25 24 26 28 27 24 21 21 21 20 19 19 21 23 18 18 20 18
45 45 44 42 41 41 41 42 39 36 35 33 31 30 29 28 27 28 30 30 30 29 28 27 25 25 25 24 23 21 22 20 20 21 20 21 22 22 22 19 19 17 16
38 39 39 37 35 33 31 31 31 30 28 27 26 25 25 24 24 25 26 28 29 30 29 28 27 25 24 24 24 24 22 23 22 22 21 22 21 19 17 16 15 14 13
29 28 27 26 25 25 25 26 27 27 27 26 26 26 26 27 27 26 26 29 28 28 28 28 27 27 28 25 20 24 25 24 22 21 19 17 15 14 14 15 14 13 11

GFSMW_sfc_dewp_087.txt.gz
Dewpoint
50 53 55 56 56 57 56 56 56 56 56 57 57 56 56 58 57 57 57 57 56 55 56 54 53 53 53 52 52 50 49 46 45 42 42 41 43 45 44 45 45 46 49
49 52 54 55 55 56 56 55 55 55 56 56 57 56 56 56 56 57 57 57 56 56 56 55 53 53 53 54 53 52 50 49 46 44 43 42 42 42 42 42 43 47 46
49 50 51 54 54 55 55 54 54 55 56 56 56 55 54 54 55 56 57 57 57 56 55 55 55 56 54 53 54 54 52 50 48 47 47 43 44 43 44 44 43 43 45
49 49 50 52 53 54 54 54 54 54 55 56 55 54 51 52 53 54 55 56 57 56 55 55 56 56 55 55 55 54 54 53 50 47 45 48 47 45 44 43 45 44 42
49 49 50 51 51 53 53 54 53 53 54 56 55 54 52 52 54 54 54 56 57 58 57 57 58 58 58 58 57 56 55 54 54 51 49 48 46 46 45 47 44 42 44
49 49 51 51 51 52 53 53 53 53 53 54 54 53 54 53 51 53 52 53 54 56 57 58 59 59 58 58 58 57 57 56 55 54 53 50 49 47 46 47 47 46 47
49 50 49 51 51 51 52 52 52 52 53 52 53 53 52 52 51 51 51 51 52 54 55 57 58 58 58 58 59 58 57 57 56 56 55 54 53 53 49 48 47 47 47
49 50 49 51 51 51 51 51 52 52 53 53 53 53 53 51 51 51 51 51 51 52 54 56 56 57 58 58 59 60 59 58 58 56 56 55 53 52 50 48 48 44 44
48 49 50 51 51 51 51 51 51 51 53 53 53 53 53 52 52 52 52 53 54 54 55 56 56 57 58 59 59 60 59 59 58 55 54 53 52 52 52 50 49 49 43
49 49 50 51 52 52 52 52 52 52 53 53 53 53 53 53 53 54 54 54 54 54 55 56 56 57 58 59 59 59 58 57 56 55 53 52 51 51 50 50 49 49 47
48 49 50 51 52 52 52 53 54 53 52 52 53 53 53 54 54 54 55 55 56 55 55 55 56 57 57 56 56 56 57 55 54 53 52 52 52 50 49 49 47 47 46
47 49 51 51 52 52 52 52 53 53 52 52 52 52 53 54 54 54 54 56 56 56 56 56 56 56 56 56 56 56 55 54 54 52 52 51 49 49 48 47 46 46 45
45 48 49 51 51 52 52 51 52 52 52 52 52 53 53 52 53 53 53 54 54 55 56 56 56 56 56 56 56 56 54 53 53 52 50 50 48 47 46 45 45 43 43
35 46 48 49 51 52 52 51 52 52 52 52 51 52 53 53 52 52 54 55 56 56 57 57 58 57 57 56 56 53 53 52 50 50 49 48 47 45 44 44 43 42 40
30 38 45 48 49 50 52 52 52 52 52 51 52 52 53 53 53 54 55 56 57 57 58 58 58 57 56 54 52 51 50 49 48 46 45 44 44 43 42 42 38 38 34
32 31 39 45 48 50 51 52 52 51 51 51 52 52 52 52 54 55 56 57 57 57 57 56 55 52 51 44 43 47 47 47 42 37 36 36 34 33 33 31 30 29 28
33 33 33 39 45 48 50 51 52 52 51 51 51 52 53 53 54 54 53 53 53 50 49 48 47 46 45 40 41 41 43 39 37 34 33 31 30 29 26 26 24 24 24
33 34 34 40 47 49 50 52 52 53 52 52 52 52 52 51 50 50 49 47 46 46 45 45 44 41 38 37 36 36 35 34 32 31 30 28 26 26 23 20 19 20 21
35 36 38 48 50 51 51 51 51 51 50 50 50 49 49 47 46 45 44 45 43 41 40 40 38 36 34 34 33 32 30 28 27 28 27 26 24 27 23 19 20 20 21
39 45 48 50 50 50 51 50 50 48 47 47 46 46 46 45 44 44 42 40 38 36 35 34 34 34 33 33 31 29 27 25 23 21 23 26 22 23 24 24 21 19 18
49 49 49 49 50 50 50 48 46 45 45 45 44 44 43 43 42 41 38 36 34 32 31 29 30 29 30 30 29 28 25 24 22 19 19 19 22 23 24 24 22 22 19
47 47 48 48 48 48 46 44 43 43 43 42 41 40 40 39 38 37 35 34 32 30 29 28 27 28 28 28 29 29 28 28 27 26 24 23 23 25 26 24 21 20 18
46 47 46 45 45 45 44 42 42 40 39 37 35 34 33 33 34 34 33 32 31 30 28 27 26 25 25 26 28 27 26 25 25 24 23 22 21 21 23 19 20 19 20
44 43 42 42 41 42 41 40 39 37 35 32 30 28 27 28 29 30 30 31 30 29 28 27 26 26 26 26 26 26 26 26 25 24 24 23 23 23 25 23 22 21 19
38 36 33 31 31 31 32 33 33 31 29 27 26 26 27 28 27 27 28 27 30 31 29 29 28 29 27 25 26 25 24 24 22 23 23 22 20 20 20 20 19 18 17
31 31 30 29 28 28 29 29 29 29 28 26 27 29 28 28 26 26 27 29 28 28 28 27 28 27 26 24 24 23 23 24 22 21 20 20 19 18 16 16 15 15 14